2014-12-26 00:01:17 r, 20.09m,0000000000Hz,0000592472c,0000001.286s, 008.0C,00002191
2014-12-26 00:11:17 r, 19.83m,0000000001Hz,0000468510c,0000001.017s, 007.7C,00002191
2014-12-26 00:21:19 r, 19.68m,0000000001Hz,0000407987c,0000000.885s, 008.0C,00002191
2014-12-26 00:31:17 r, 19.48m,0000000001Hz,0000340699c,0000000.739s, 008.0C,00002191
2014-12-26 00:41:19 r, 19.51m,0000000001Hz,0000350431c,0000000.760s, 008.3C,00002191
2014-12-26 00:51:18 r, 19.58m,0000000001Hz,0000372465c,0000000.808s, 008.3C,00002191
2014-12-26 01:01:18 r, 19.60m,0000000001Hz,0000380244c,0000000.825s, 008.3C,00002191
2014-12-26 01:11:17 r, 19.66m,0000000001Hz,0000399404c,0000000.867s, 008.3C,00002191
2014-12-26 01:21:18 r, 19.81m,0000000001Hz,0000462808c,0000001.004s, 008.3C,00002191
2014-12-26 01:31:20 r, 19.95m,0000000001Hz,0000519368c,0000001.127s, 008.3C,00002191
2014-12-26 01:41:18 r, 20.14m,0000000001Hz,0000622021c,0000001.350s, 008.0C,00002191
2014-12-26 01:51:17 r, 20.48m,0000000000Hz,0000843980c,0000001.832s, 007.7C,00002191
2014-12-26 02:01:19 r, 20.63m,0000000001Hz,0000969903c,0000002.105s, 007.4C,00002191
2014-12-26 02:11:19 r, 20.39m,0000000001Hz,0000782333c,0000001.698s, 006.7C,00002191
2014-12-26 02:21:16 r, 20.08m,0000000001Hz,0000588504c,0000001.277s, 006.1C,00002191
2014-12-26 02:31:17 r, 19.60m,0000000001Hz,0000378432c,0000000.821s, 006.4C,00002191
2014-12-26 02:41:18 r, 18.84m,0000000002Hz,0000189339c,0000000.411s, 006.7C,00002191
2014-12-26 02:51:17 r, 18.73m,0000000002Hz,0000170855c,0000000.371s, 007.4C,00002191
2014-12-26 03:01:18 r, 18.73m,0000000003Hz,0000171797c,0000000.373s, 007.7C,00002191
2014-12-26 03:11:18 r, 18.80m,0000000003Hz,0000181610c,0000000.394s, 007.7C,00002191
2014-12-26 03:21:17 r, 18.68m,0000000003Hz,0000162382c,0000000.352s, 007.7C,00002191
2014-12-26 03:31:17 r, 18.73m,0000000003Hz,0000171822c,0000000.373s, 007.7C,00002191
2014-12-26 03:41:19 r, 18.81m,0000000003Hz,0000183443c,0000000.398s, 007.4C,00002191
2014-12-26 03:51:16 r, 18.73m,0000000003Hz,0000170953c,0000000.371s, 007.4C,00002191
2014-12-26 04:01:19 r, 18.78m,0000000003Hz,0000177930c,0000000.386s, 007.0C,00002191
2014-12-26 04:11:18 r, 18.61m,0000000003Hz,0000153448c,0000000.333s, 006.7C,00002191
2014-12-26 04:21:19 r, 18.58m,0000000003Hz,0000148046c,0000000.321s, 006.7C,00002191
2014-12-26 04:31:17 r, 18.55m,0000000003Hz,0000144590c,0000000.314s, 006.4C,00002191
2014-12-26 04:41:18 r, 18.55m,0000000003Hz,0000144991c,0000000.315s, 006.4C,00002191
2014-12-26 04:51:17 r, 18.52m,0000000004Hz,0000141101c,0000000.306s, 006.1C,00002191
2014-12-26 05:01:17 r, 18.76m,0000000003Hz,0000175969c,0000000.382s, 006.1C,00002191
2014-12-26 05:11:19 r, 18.75m,0000000003Hz,0000173639c,0000000.377s, 006.1C,00002191
2014-12-26 05:21:17 r, 18.58m,0000000003Hz,0000148663c,0000000.323s, 005.8C,00002191
2014-12-26 05:31:18 r, 18.57m,0000000003Hz,0000146786c,0000000.319s, 005.8C,00002191
2014-12-26 05:41:17 r, 18.59m,0000000003Hz,0000149600c,0000000.325s, 005.8C,00002191
2014-12-26 05:51:18 r, 18.61m,0000000003Hz,0000152918c,0000000.332s, 005.8C,00002191
2014-12-26 06:01:17 r, 18.51m,0000000004Hz,0000138941c,0000000.302s, 005.4C,00002191
2014-12-26 06:11:19 r, 18.51m,0000000003Hz,0000139307c,0000000.302s, 005.4C,00002191
2014-12-26 06:21:17 r, 18.48m,0000000003Hz,0000135343c,0000000.294s, 005.4C,00002191
2014-12-26 06:31:19 r, 18.44m,0000000003Hz,0000130572c,0000000.283s, 005.4C,00002191
2014-12-26 06:41:17 r, 18.61m,0000000003Hz,0000151707c,0000000.329s, 005.1C,00002191
2014-12-26 06:51:19 r, 18.62m,0000000003Hz,0000154436c,0000000.335s, 005.1C,00002191
2014-12-26 07:01:16 r, 18.85m,0000000002Hz,0000190148c,0000000.413s, 005.1C,00002191
2014-12-26 07:11:18 r, 18.24m,0000000004Hz,0000108163c,0000000.235s, 005.1C,00002191
2014-12-26 07:21:17 r, 17.03m,0000000013Hz,0000035647c,0000000.077s, 004.8C,00002191
2014-12-26 07:31:18 r, 15.45m,0000000056Hz,0000008287c,0000000.018s, 004.8C,00002191
2014-12-26 07:41:16 r, 13.72m,0000000275Hz,0000000000c,0000000.000s, 004.5C,00002191
2014-12-26 07:51:18 r, 11.88m,0000001493Hz,0000000000c,0000000.000s, 004.5C,00002191
2014-12-26 08:01:17 r, 10.08m,0000007838Hz,0000000000c,0000000.000s, 004.1C,00002191
2014-12-26 08:11:19 r, 08.60m,0000030622Hz,0000000000c,0000000.000s, 004.1C,00002191
2014-12-26 08:21:17 r, 07.53m,0000082832Hz,0000000000c,0000000.000s, 003.8C,00002191
2014-12-26 08:31:19 r, 06.74m,0000170960Hz,0000000000c,0000000.000s, 003.8C,00002191
2014-12-26 08:41:17 r, 06.14m,0000294942Hz,0000000000c,0000000.000s, 003.8C,00002191
2014-12-26 08:51:18 r, 00.00m,0000446126Hz,0000000000c,0000000.000s, 003.8C,00002191
2014-12-26 09:01:16 r, 00.00m,0000597191Hz,0000000000c,0000000.000s, 003.8C,00002191
2014-12-26 09:11:18 r, 00.00m,0000597105Hz,0000000000c,0000000.000s, 004.1C,00002191
2014-12-26 09:21:16 r, 00.00m,0000597154Hz,0000000000c,0000000.000s, 004.1C,00002191
2014-12-26 09:31:16 r, 00.00m,0000597118Hz,0000000000c,0000000.000s, 004.5C,00002191
2014-12-26 09:41:16 r, 00.00m,0000597092Hz,0000000000c,0000000.000s, 004.8C,00002191
2014-12-26 09:51:19 r, 00.00m,0000596972Hz,0000000000c,0000000.000s, 005.1C,00002191
2014-12-26 10:01:17 r, 00.00m,0000596938Hz,0000000000c,0000000.000s, 005.1C,00002191
2014-12-26 10:11:19 r, 00.00m,0000596879Hz,0000000000c,0000000.000s, 005.4C,00002191
2014-12-26 10:21:16 r, 00.00m,0000596887Hz,0000000000c,0000000.000s, 005.8C,00002191
2014-12-26 10:31:17 r, 00.00m,0000597083Hz,0000000000c,0000000.000s, 006.1C,00002191
2014-12-26 10:41:19 r, 00.00m,0000596914Hz,0000000000c,0000000.000s, 006.4C,00002191
2014-12-26 10:51:18 r, 00.00m,0000596904Hz,0000000000c,0000000.000s, 006.7C,00002191
2014-12-26 11:01:16 r, 00.00m,0000596839Hz,0000000000c,0000000.000s, 007.0C,00002191
2014-12-26 11:11:18 r, 00.00m,0000596818Hz,0000000000c,0000000.000s, 007.0C,00002191
2014-12-26 11:21:16 r, 00.00m,0000596875Hz,0000000000c,0000000.000s, 007.0C,00002191
2014-12-26 11:31:19 r, 00.00m,0000596881Hz,0000000000c,0000000.000s, 007.0C,00002191
2014-12-26 11:41:18 r, 00.00m,0000596807Hz,0000000000c,0000000.000s, 007.4C,00002191
2014-12-26 11:51:19 r, 00.00m,0000596773Hz,0000000000c,0000000.000s, 007.7C,00002191
2014-12-26 12:01:17 r, 00.00m,0000596825Hz,0000000000c,0000000.000s, 007.7C,00002191
2014-12-26 12:11:19 r, 00.00m,0000596730Hz,0000000000c,0000000.000s, 008.0C,00002191
2014-12-26 12:21:19 r, 00.00m,0000596744Hz,0000000000c,0000000.000s, 008.3C,00002191
2014-12-26 12:31:17 r, 00.00m,0000596708Hz,0000000000c,0000000.000s, 008.3C,00002191
2014-12-26 12:41:17 r, 00.00m,0000596639Hz,0000000000c,0000000.000s, 008.3C,00002191
2014-12-26 12:51:16 r, 00.00m,0000596797Hz,0000000000c,0000000.000s, 008.3C,00002191
2014-12-26 13:01:19 r, 00.00m,0000596789Hz,0000000000c,0000000.000s, 008.0C,00002191
2014-12-26 13:11:17 r, 00.00m,0000596705Hz,0000000000c,0000000.000s, 008.0C,00002191
2014-12-26 13:21:16 r, 00.00m,0000596771Hz,0000000000c,0000000.000s, 007.7C,00002191
2014-12-26 13:31:19 r, 00.00m,0000596754Hz,0000000000c,0000000.000s, 007.4C,00002191
2014-12-26 13:41:23 r, 00.00m,0000596823Hz,0000000000c,0000000.000s, 006.7C,00002191
2014-12-26 13:51:19 r, 00.00m,0000596708Hz,0000000000c,0000000.000s, 006.7C,00002191
2014-12-26 14:01:18 r, 00.00m,0000596819Hz,0000000000c,0000000.000s, 006.4C,00002191
2014-12-26 14:11:16 r, 00.00m,0000596860Hz,0000000000c,0000000.000s, 006.1C,00002191
2014-12-26 14:21:19 r, 00.00m,0000596890Hz,0000000000c,0000000.000s, 006.1C,00002191
2014-12-26 14:31:16 r, 00.00m,0000596892Hz,0000000000c,0000000.000s, 006.1C,00002191
2014-12-26 14:41:19 r, 00.00m,0000596846Hz,0000000000c,0000000.000s, 005.8C,00002191
2014-12-26 14:51:17 r, 00.00m,0000597038Hz,0000000000c,0000000.000s, 005.1C,00002191
2014-12-26 15:01:18 r, 00.00m,0000597045Hz,0000000000c,0000000.000s, 004.8C,00002191
2014-12-26 15:11:16 r, 00.00m,0000597045Hz,0000000000c,0000000.000s, 004.5C,00002191
2014-12-26 15:21:21 r, 00.00m,0000597002Hz,0000000000c,0000000.000s, 004.1C,00002191
2014-12-26 15:31:16 r, 00.00m,0000597123Hz,0000000000c,0000000.000s, 003.8C,00002191
2014-12-26 15:41:18 r, 00.00m,0000597065Hz,0000000000c,0000000.000s, 003.5C,00002191
2014-12-26 15:51:18 r, 00.00m,0000578172Hz,0000000000c,0000000.000s, 003.2C,00002191
2014-12-26 16:01:19 r, 00.00m,0000463809Hz,0000000000c,0000000.000s, 003.2C,00002191
2014-12-26 16:11:16 r, 06.01m,0000334527Hz,0000000000c,0000000.000s, 002.9C,00002191
2014-12-26 16:21:19 r, 06.64m,0000186842Hz,0000000000c,0000000.000s, 002.2C,00002191
2014-12-26 16:31:16 r, 07.26m,0000105010Hz,0000000000c,0000000.000s, 002.2C,00002191
2014-12-26 16:41:19 r, 08.16m,0000046275Hz,0000000000c,0000000.000s, 001.9C,00002191
2014-12-26 16:51:20 r, 09.48m,0000013569Hz,0000000000c,0000000.000s, 001.9C,00002191
2014-12-26 17:01:18 r, 11.02m,0000003314Hz,0000000000c,0000000.000s, 001.6C,00002191
2014-12-26 17:11:16 r, 12.89m,0000000589Hz,0000000000c,0000000.000s, 001.6C,00002191
2014-12-26 17:21:16 r, 14.69m,0000000112Hz,0000004108c,0000000.009s, 001.2C,00002191
2014-12-26 17:31:19 r, 16.20m,0000000028Hz,0000016528c,0000000.036s, 001.6C,00002191
2014-12-26 17:41:16 r, 17.37m,0000000010Hz,0000048812c,0000000.106s, 001.2C,00002191
2014-12-26 17:51:18 r, 18.08m,0000000005Hz,0000093978c,0000000.204s, 001.2C,00002191
2014-12-26 18:01:18 r, 18.31m,0000000004Hz,0000115453c,0000000.251s, 000.9C,00002191
2014-12-26 18:11:18 r, 18.43m,0000000004Hz,0000128722c,0000000.279s, 000.9C,00002191
2014-12-26 18:21:18 r, 18.41m,0000000003Hz,0000126543c,0000000.275s, 000.6C,00002191
2014-12-26 18:31:18 r, 18.44m,0000000003Hz,0000130287c,0000000.283s, 000.6C,00002191
2014-12-26 18:41:16 r, 18.53m,0000000004Hz,0000141977c,0000000.308s, 000.3C,00002191
2014-12-26 18:51:20 r, 18.61m,0000000003Hz,0000151614c,0000000.329s, 000.3C,00002191
2014-12-26 19:01:19 r, 18.60m,0000000003Hz,0000150828c,0000000.327s, 000.3C,00002191
2014-12-26 19:11:19 r, 18.67m,0000000003Hz,0000161288c,0000000.350s, 000.3C,00002191
2014-12-26 19:21:18 r, 18.53m,0000000003Hz,0000142219c,0000000.309s, 000.3C,00002191
2014-12-26 19:31:18 r, 18.51m,0000000003Hz,0000138270c,0000000.300s, 000.3C,00002191
2014-12-26 19:41:18 r, 18.54m,0000000003Hz,0000144041c,0000000.313s, 000.3C,00002191
2014-12-26 19:51:18 r, 18.58m,0000000003Hz,0000148877c,0000000.323s, 000.3C,00002191
2014-12-26 20:01:20 r, 18.62m,0000000003Hz,0000154596c,0000000.335s, 000.3C,00002191
2014-12-26 20:11:18 r, 18.59m,0000000003Hz,0000150375c,0000000.326s, 000.3C,00002191
2014-12-26 20:21:23 r, 18.62m,0000000003Hz,0000153959c,0000000.334s, 000.1C,00002191
2014-12-26 20:31:17 r, 18.54m,0000000003Hz,0000144050c,0000000.313s, 000.1C,00002191
2014-12-26 20:41:18 r, 18.60m,0000000003Hz,0000150776c,0000000.327s, 000.1C,00002191
2014-12-26 20:51:18 r, 18.63m,0000000003Hz,0000156324c,0000000.339s, 000.1C,00002191
2014-12-26 21:01:18 r, 18.70m,0000000002Hz,0000166090c,0000000.360s,-000.4C,00002191
2014-12-26 21:11:16 r, 18.84m,0000000002Hz,0000188130c,0000000.408s,-000.4C,00002191
2014-12-26 21:21:19 r, 18.93m,0000000002Hz,0000204454c,0000000.444s,-000.4C,00002191
2014-12-26 21:31:16 r, 18.93m,0000000002Hz,0000205415c,0000000.446s,-000.7C,00002191
2014-12-26 21:41:19 r, 19.11m,0000000002Hz,0000238249c,0000000.517s,-000.7C,00002191
2014-12-26 21:51:20 r, 19.08m,0000000002Hz,0000232315c,0000000.504s,-000.7C,00002191
2014-12-26 22:01:17 r, 19.17m,0000000001Hz,0000252540c,0000000.548s,-001.0C,00002191
2014-12-26 22:11:16 r, 19.22m,0000000001Hz,0000264270c,0000000.574s,-001.0C,00002191
2014-12-26 22:21:18 r, 19.21m,0000000002Hz,0000263975c,0000000.573s,-000.7C,00002191
2014-12-26 22:31:18 r, 19.14m,0000000002Hz,0000246677c,0000000.535s,-000.7C,00002191
2014-12-26 22:41:16 r, 19.21m,0000000002Hz,0000262061c,0000000.569s,-001.0C,00002191
2014-12-26 22:51:19 r, 19.27m,0000000001Hz,0000277350c,0000000.602s,-001.0C,00002191
2014-12-26 23:01:18 r, 19.22m,0000000002Hz,0000265896c,0000000.577s,-001.0C,00002191
2014-12-26 23:11:18 r, 19.14m,0000000001Hz,0000246693c,0000000.535s,-001.0C,00002191
2014-12-26 23:21:17 r, 19.16m,0000000002Hz,0000250815c,0000000.544s,-001.0C,00002191
2014-12-26 23:31:18 r, 19.21m,0000000002Hz,0000263740c,0000000.572s,-001.0C,00002191
2014-12-26 23:41:16 r, 19.58m,0000000002Hz,0000370488c,0000000.804s,-001.3C,00002191
2014-12-26 23:51:18 r, 19.27m,0000000001Hz,0000276668c,0000000.600s,-001.3C,00002191
